[[{"header":{"parameterUnit":"m.s-1","parameterCategory":1,"la1":30.2991,"la2":30.254,"lo1":-89.0895,"lo2":-89.0444,"dy":0.0017,"dx":0.0017,"nx":28,"ny":28,"refTime":"2025-04-08T03:00:00:Z","depth":0,"parameterNumber":2,"parameterNumberName":"U-component_of_WINDS"},"data":[0,0,0,0,0,0,0,0,0,0,0,0,0,0,0,0,0,0,0,0,0,0,0,0,0,0,0,0,0,0,0,0,0,0,0,0,0,0,0,0,0,0,0,0,0,0,0,0,0,0,0,0,0,0,0,0,0,0,-1.9806,-1.9807,0,-1.984,-1.984,-1.9841,-1.9797,-1.9795,-1.9793,-1.9792,-1.9827,-1.983,-1.9832,0,0,0,0,0,0,0,0,0,0,0,0,0,-1.9705,-1.9707,-1.9806,-1.9807,-1.9807,-1.984,-1.984,-1.9841,-1.9797,-1.9795,-1.9793,-1.9791,-1.9827,-1.983,-1.9832,0,0,0,0,0,0,0,0,0,0,0,0,0,-1.9745,-1.9708,-1.9806,-1.9789,-1.9788,-1.984,-1.984,-1.9841,-1.9797,-1.9795,-1.9793,-1.979,-1.9826,-1.9829,-1.9833,-1.9903,0,0,-1.9844,-1.9846,0,0,0,0,0,0,0,0,-1.9743,-1.9749,-1.9791,-1.979,-1.9789,-1.9812,-1.9818,-1.9862,-1.9798,-1.9794,-1.9792,-1.9789,-1.9824,-1.9828,-1.9839,-1.9905,-1.9907,-1.9844,-1.9847,-1.9848,-1.9849,0,0,0,0,0,0,0,-1.974,-1.9747,-1.982,-1.9792,-1.9791,-1.978,-1.9783,-1.9826,-1.9822,-1.9794,-1.9791,-1.9795,-1.9823,-1.9836,-1.984,-1.9907,-1.9844,-1.9848,-1.985,-1.9851,-2.0033,-2.0035,0,0,0,0,0,0,-1.9739,-1.9745,-1.9819,-1.9821,-1.9759,-1.9784,-1.9787,-1.9807,-1.9821,-1.9821,-1.9797,-1.9793,-1.9831,-1.9836,-1.9841,-1.9925,-1.9848,-1.9852,-1.9854,-2.003,-2.0033,-2.0036,0,0,0,0,0,0,-1.9737,-1.9746,-1.9817,-1.9782,-1.979,-1.9788,-1.9811,-1.9809,-1.9822,-1.9824,-1.9823,-1.9811,-1.9829,-1.9836,-1.9888,-1.9925,-1.9853,-1.9857,-2.0027,-2.0031,-2.0035,-2.0093,0,0,0,0,0,0,-1.9734,-1.9746,-1.9772,-1.9783,-1.9792,-1.9864,-1.9813,-1.9811,-1.9828,-1.9823,-1.9837,-1.9837,-1.9828,-1.9883,-1.9892,-1.9929,-1.9859,-2.0024,-2.0029,-2.0033,-2.0087,-2.0098,-2.0107,0,0,0,0,0,-1.9731,-1.9787,-1.9774,-1.9783,-1.9825,-1.9866,-1.9871,-1.986,-1.9831,-1.9858,-1.986,-1.9836,-1.992,-1.9889,-1.9898,-1.9937,-2.0021,-2.0027,-2.0033,-2.0083,-2.0096,-2.0107,0,0,0,0,0,0,-1.9781,-1.9788,-1.9773,-1.9835,-1.985,-1.9858,-1.9892,-1.9874,-1.9898,-1.9892,-1.9877,-1.988,-1.9936,-1.9942,-1.9907,-2.0006,-1.9966,-1.9974,-2.0001,-2.0013,-2.0023,-2.002,-1.9862,0,0,0,0,0,-1.9799,-1.9831,-1.9836,-1.989,-1.9898,-1.9894,-1.9911,-1.9901,-1.9916,-1.9922,-1.9928,-1.9944,-1.9974,-1.9994,-2.0021,-2.0088,-2.0091,-2.012,-2.0129,-2.0138,-2.0145,-2.0181,-2.0194,-2.0055,-2.0055,-2.0055,0,0,-1.9837,-1.9845,-1.9866,-1.99,-1.9911,-1.9945,-1.99,-1.9937,-1.9962,-1.9928,-1.9978,-1.9983,-1.9999,-2.0059,-2.0086,-2.0066,-2.0184,-2.0145,-2.0152,-2.0154,-2.0188,-2.0201,-2.0213,-2.0059,-2.0059,-2.0058,0,0,-1.9924,-1.9933,-1.9979,-1.999,-2.0007,-2.0004,-2.0015,-2.0026,-2.0028,-2.0077,-2.0052,-2.0082,-2.0134,-2.0147,-2.016,-2.0252,-2.0232,-2.0262,-2.0313,-2.0349,-2.036,-2.0369,-2.0402,-2.0414,-2.0269,-2.0269,-2.0269,0,-1.9969,-2.0018,-2.0005,-2.0044,-2.006,-2.003,-2.0077,-2.0089,-2.0114,-2.0126,-2.0103,-2.0167,-2.0176,-2.0239,-2.0261,-2.0273,-2.0286,-2.026,-2.0359,-2.0369,-2.0377,-2.0409,-2.0421,-2.0273,-2.0272,-2.0272,-2.0272,0,-2.0073,-2.0108,-2.0143,-2.0168,-2.0188,-2.023,-2.0224,-2.0245,-2.0233,-2.0233,-2.0284,-2.0294,-2.0323,-2.0337,-2.0326,-2.0399,-2.0386,-2.0361,-2.032,-2.0394,-2.0423,-2.0435,-2.0278,-2.0276,-2.0275,-2.0274,0,0,-2.0192,-2.0208,-2.0222,-2.0232,-2.0249,-2.0276,-2.0318,-2.0346,-2.0365,-2.0383,-2.0418,-2.0463,-2.044,-2.0455,-2.0446,-2.0477,-2.0549,-2.0448,-2.0448,-2.0467,-2.063,-2.0648,-2.0662,-2.0536,-2.0538,-2.054,-2.0628,0,-2.0278,-2.035,-2.0339,-2.0409,-2.0441,-2.0414,-2.045,-2.0464,-2.0465,-2.0493,-2.0494,-2.0525,-2.0493,-2.0502,-2.0532,-2.0534,-2.0582,-2.0527,-2.0568,-2.057,-2.0565,-2.0677,-2.0697,-2.078,-2.064,-2.0642,-2.0643,0,-2.0388,-2.0411,-2.0483,-2.0495,-2.0508,-2.0541,-2.0566,-2.0593,-2.0609,-2.0607,-2.0625,-2.0609,-2.0651,-2.061,-2.0668,-2.0631,-2.0647,-2.0651,-2.0654,-2.0657,-2.0611,-2.0684,-2.0806,-2.0818,-2.0661,-2.0659,-2.0658,0,-2.0468,-2.0516,-2.0566,-2.0576,-2.0591,-2.0614,-2.0622,-2.0635,-2.0653,-2.0675,-2.0687,-2.0714,-2.0729,-2.075,-2.0743,-2.0713,-2.0802,-2.076,-2.0802,-2.0803,-2.0822,-2.0821,-2.0949,-2.0833,-2.0833,-2.0832,-2.0832,0,-2.0565,-2.0611,-2.0601,-2.0632,-2.0682,-2.067,-2.072,-2.0724,-2.0736,-2.0768,-2.0746,-2.0776,-2.0764,-2.0793,-2.0788,-2.0837,-2.0844,-2.0844,-2.0842,-2.0846,-2.0846,-2.0856,-2.085,-2.0836,-2.0835,-2.0834,-2.0834,0,-2.0662,-2.0657,-2.071,-2.072,-2.0723,-2.076,-2.0768,-2.0797,-2.0797,-2.0836,-2.0845,-2.0844,-2.0877,-2.0872,-2.0909,-2.0905,-2.0966,-2.0957,-2.0961,-2.0959,-2.1001,-2.0997,-2.114,-2.1158,-2.1031,-2.1032,-2.1033,0,-2.0724,-2.0759,-2.0772,-2.0791,-2.08,-2.0832,-2.085,-2.0839,-2.0859,-2.088,-2.0906,-2.0937,-2.0962,-2.1017,-2.1019,-2.1047,-2.1039,-2.1087,-2.1043,-2.1046,-2.104,-2.1037,-2.1041,-2.1096,-2.1097,-2.1098,-2.1099,0,-2.0835,-2.0832,-2.0858,-2.0885,-2.0907,-2.0927,-2.0945,-2.0963,-2.0953,-2.0977,-2.101,-2.1029,-2.1067,-2.1099,-2.1125,-2.1133,-2.1115,-2.1113,-2.1124,-2.1129,-2.1129,-2.1129,-2.0985,-2.111,-2.1109,-2.1108,-2.1107,-2.1107,-2.0917,-2.0946,-2.096,-2.0991,-2.1004,-2.1021,-2.1049,-2.1052,-2.1079,-2.1109,-2.1101,-2.1139,-2.1155,-2.1189,-2.1199,-2.1229,-2.1212,-2.1228,-2.1232,-2.1236,-2.1241,-2.1125,-2.1234,-2.1234,-2.1234,-2.1233,-2.1233,0,-2.1027,-2.1035,-2.1063,-2.1089,-2.1113,-2.1094,-2.1113,-2.1135,-2.1169,-2.1185,-2.1209,-2.1248,-2.1279,-2.1284,-2.1313,-2.1336,-2.1328,-2.1344,-2.1342,-2.1344,-2.1255,-2.1243,-2.135,-2.135,-2.135,-2.135,-2.135,-2.135,-2.1087,-2.1135,-2.1133,-2.1188,-2.1196,-2.1233,-2.1246,-2.1262,-2.1275,-2.1319,-2.1344,-2.1347,-2.1359,-2.1389,-2.1416,-2.1417,-2.1429,-2.1448,-2.1445,-2.1362,-2.135,-2.1339,-2.1327,-2.145,-2.145,-2.1531,-2.1532,-2.1533]},{"header":{"parameterUnit":"m.s-1","parameterCategory":1,"la1":30.2991,"la2":30.254,"lo1":-89.0895,"lo2":-89.0444,"dy":0.0017,"dx":0.0017,"nx":28,"ny":28,"refTime":"2025-04-08T03:00:00:Z","depth":0,"parameterNumber":3,"parameterNumberName":"V-component_of_WINDS"},"data":[0,0,0,0,0,0,0,0,0,0,0,0,0,0,0,0,0,0,0,0,0,0,0,0,0,0,0,0,0,0,0,0,0,0,0,0,0,0,0,0,0,0,0,0,0,0,0,0,0,0,0,0,0,0,0,0,0,0,-1.7352,-1.7352,0,-1.7369,-1.7369,-1.7369,-1.7338,-1.7337,-1.7336,-1.7335,-1.7352,-1.7354,-1.7355,0,0,0,0,0,0,0,0,0,0,0,0,0,-1.7294,-1.7295,-1.7352,-1.7352,-1.7353,-1.7369,-1.7369,-1.7369,-1.7339,-1.7337,-1.7336,-1.7335,-1.7352,-1.7354,-1.7355,0,0,0,0,0,0,0,0,0,0,0,0,0,-1.7316,-1.7296,-1.7352,-1.7339,-1.7338,-1.7369,-1.7369,-1.7369,-1.7339,-1.7337,-1.7336,-1.7334,-1.7351,-1.7353,-1.7356,-1.7399,0,0,-1.7362,-1.7363,0,0,0,0,0,0,0,0,-1.7315,-1.7318,-1.7341,-1.734,-1.7339,-1.735,-1.7355,-1.7379,-1.7339,-1.7339,-1.7335,-1.7334,-1.7353,-1.7355,-1.7361,-1.74,-1.7401,-1.7362,-1.7363,-1.7364,-1.7365,0,0,0,0,0,0,0,-1.7313,-1.7317,-1.7359,-1.7341,-1.734,-1.7333,-1.7334,-1.7359,-1.7354,-1.7339,-1.7336,-1.7339,-1.7352,-1.7359,-1.7361,-1.7401,-1.7362,-1.7364,-1.7365,-1.7366,-1.7476,-1.7477,0,0,0,0,0,0,-1.7313,-1.7316,-1.7358,-1.7359,-1.7323,-1.7335,-1.7336,-1.7348,-1.7354,-1.7353,-1.734,-1.7337,-1.7356,-1.7359,-1.7362,-1.7413,-1.7364,-1.7366,-1.7367,-1.7474,-1.7476,-1.7478,0,0,0,0,0,0,-1.7312,-1.7317,-1.7357,-1.7337,-1.7342,-1.7338,-1.7351,-1.7349,-1.7356,-1.7355,-1.7354,-1.7348,-1.7355,-1.7359,-1.739,-1.7413,-1.7367,-1.7369,-1.7472,-1.7475,-1.7477,-1.7517,0,0,0,0,0,0,-1.7311,-1.7317,-1.7334,-1.7338,-1.7343,-1.7386,-1.7352,-1.7351,-1.736,-1.7357,-1.7362,-1.7362,-1.7354,-1.7387,-1.7392,-1.7416,-1.7371,-1.747,-1.7473,-1.7476,-1.7513,-1.752,-1.7526,0,0,0,0,0,-1.7309,-1.7344,-1.7335,-1.734,-1.7363,-1.7387,-1.739,-1.7381,-1.7362,-1.7379,-1.7378,-1.7362,-1.741,-1.739,-1.7396,-1.742,-1.7469,-1.7472,-1.7476,-1.751,-1.7519,-1.7526,0,0,0,0,0,0,-1.7343,-1.7344,-1.7334,-1.7372,-1.738,-1.7382,-1.7403,-1.739,-1.7403,-1.7399,-1.7387,-1.7389,-1.7422,-1.7424,-1.7403,-1.7463,-1.7436,-1.7441,-1.746,-1.7468,-1.7475,-1.7474,-1.7373,0,0,0,0,0,-1.7355,-1.7374,-1.7374,-1.7408,-1.7412,-1.7407,-1.7417,-1.7409,-1.7416,-1.7419,-1.7421,-1.7429,-1.7445,-1.7457,-1.7472,-1.7513,-1.7514,-1.7532,-1.7539,-1.7544,-1.7549,-1.7571,-1.7579,-1.749,-1.749,-1.749,0,0,-1.738,-1.7383,-1.7396,-1.7415,-1.742,-1.744,-1.741,-1.7432,-1.7447,-1.7423,-1.7452,-1.7453,-1.7461,-1.7498,-1.7514,-1.75,-1.7573,-1.7549,-1.7553,-1.7555,-1.7575,-1.7584,-1.7591,-1.7493,-1.7492,-1.7492,0,0,-1.7437,-1.7441,-1.7469,-1.7475,-1.7483,-1.7479,-1.7485,-1.749,-1.7489,-1.7519,-1.7501,-1.7518,-1.7547,-1.7554,-1.7561,-1.7619,-1.7605,-1.7624,-1.7658,-1.768,-1.7687,-1.7693,-1.7714,-1.7721,-1.7629,-1.7629,-1.7629,0,-1.7467,-1.7496,-1.7485,-1.7509,-1.7518,-1.7496,-1.7525,-1.7531,-1.7544,-1.755,-1.7535,-1.7571,-1.7575,-1.7612,-1.7626,-1.7633,-1.764,-1.7624,-1.7686,-1.7692,-1.7698,-1.7718,-1.7726,-1.7631,-1.7631,-1.7631,-1.7631,0,-1.7533,-1.7554,-1.7576,-1.7589,-1.76,-1.7626,-1.7619,-1.7631,-1.7622,-1.762,-1.765,-1.7653,-1.7669,-1.7677,-1.7669,-1.7714,-1.7705,-1.7688,-1.7662,-1.7709,-1.7728,-1.7735,-1.7635,-1.7634,-1.7633,-1.7633,0,0,-1.7613,-1.7618,-1.7627,-1.7632,-1.7639,-1.7655,-1.768,-1.7695,-1.7706,-1.7715,-1.7736,-1.7761,-1.7746,-1.7754,-1.7746,-1.7764,-1.781,-1.7745,-1.7745,-1.7758,-1.786,-1.7873,-1.7882,-1.7801,-1.7802,-1.7803,-1.786,0,-1.7669,-1.7712,-1.7702,-1.7745,-1.7764,-1.7744,-1.7765,-1.7772,-1.777,-1.7786,-1.7784,-1.7802,-1.778,-1.7785,-1.7802,-1.7801,-1.7831,-1.7797,-1.782,-1.7821,-1.782,-1.7892,-1.7906,-1.7959,-1.7867,-1.7868,-1.7869,0,-1.774,-1.7752,-1.7797,-1.78,-1.7808,-1.7828,-1.7841,-1.7856,-1.7863,-1.786,-1.7869,-1.7857,-1.7882,-1.7854,-1.7888,-1.7865,-1.7874,-1.7875,-1.7876,-1.7879,-1.7848,-1.7897,-1.7976,-1.7984,-1.788,-1.7879,-1.7879,0,-1.7794,-1.7821,-1.7851,-1.7857,-1.7861,-1.7876,-1.7879,-1.7884,-1.7894,-1.7905,-1.7911,-1.7925,-1.7933,-1.7945,-1.7937,-1.7917,-1.7972,-1.7944,-1.7971,-1.7971,-1.7984,-1.7983,-1.8066,-1.7989,-1.7988,-1.7988,-1.7988,0,-1.7858,-1.7886,-1.7876,-1.7894,-1.7925,-1.7913,-1.7944,-1.7944,-1.7949,-1.7968,-1.7951,-1.7968,-1.7956,-1.7973,-1.7966,-1.7996,-1.7999,-1.7998,-1.7996,-1.8,-1.8,-1.8006,-1.8002,-1.799,-1.799,-1.7989,-1.7989,0,-1.7924,-1.7918,-1.795,-1.7951,-1.7953,-1.7975,-1.7977,-1.7994,-1.7991,-1.8014,-1.8019,-1.8014,-1.8032,-1.8025,-1.8045,-1.8041,-1.8078,-1.8071,-1.8076,-1.8074,-1.8102,-1.81,-1.8192,-1.8204,-1.8118,-1.8119,-1.812,0,-1.7966,-1.7987,-1.7991,-1.8002,-1.8006,-1.8024,-1.8034,-1.8023,-1.8034,-1.8043,-1.8059,-1.8076,-1.8089,-1.812,-1.8118,-1.8133,-1.8126,-1.8157,-1.8128,-1.8131,-1.8127,-1.8126,-1.8129,-1.8164,-1.8165,-1.8165,-1.8166,0,-1.804,-1.8036,-1.8051,-1.8065,-1.8077,-1.8088,-1.8097,-1.8107,-1.8096,-1.8109,-1.8128,-1.8138,-1.8158,-1.8175,-1.8188,-1.8191,-1.8177,-1.8175,-1.8182,-1.8187,-1.8189,-1.8189,-1.8093,-1.8173,-1.8172,-1.8172,-1.8172,-1.8171,-1.8096,-1.8114,-1.8119,-1.8137,-1.8142,-1.8151,-1.8167,-1.8166,-1.8181,-1.8197,-1.8189,-1.8211,-1.8217,-1.8233,-1.8237,-1.8254,-1.8242,-1.8252,-1.8255,-1.8258,-1.8262,-1.8186,-1.8256,-1.8256,-1.8256,-1.8256,-1.8256,0,-1.817,-1.8173,-1.8189,-1.8202,-1.8215,-1.82,-1.8209,-1.8222,-1.8241,-1.8247,-1.8261,-1.8282,-1.8298,-1.8297,-1.8313,-1.8326,-1.832,-1.8331,-1.833,-1.8331,-1.8271,-1.8264,-1.8335,-1.8335,-1.8335,-1.8335,-1.8335,-1.8335,-1.821,-1.824,-1.8236,-1.8269,-1.8271,-1.8292,-1.8298,-1.8306,-1.8311,-1.8336,-1.835,-1.8349,-1.8353,-1.8368,-1.8382,-1.8381,-1.8388,-1.8401,-1.8398,-1.8343,-1.8335,-1.8327,-1.832,-1.8402,-1.8402,-1.8456,-1.8456,-1.8457]}]]